SVMISVBM

Guest
Details From SVMI - Caracas Simon Bolivar Intl
To SVBM - BARQUISIMETO INTL
Flight Number -
Tags generated
Created
Modified
Stats Distance 144 nm / 267 km
Max Altitude 10,000 ft / 3,048 m
Waypoints 3
Social Downloads 1
Likes 0
Share

Download

Looking for another format? Having issues loading an existing format? Contact us
Advertisement - Login to hide

Notes

Basic altitude profile: - Ascent Rate: 2500ft/min - Ascent Speed: 250kts - Cruise Altitude: 35000ft - Cruise Speed: 420kts - Descent Rate: 1500ft/min - Descent Speed: 250kts Options: - Use NATs: yes - Use PACOTS: yes - Use low airways: yes - Use high airways: yes

Route

SVMI KERON SVBM

ID Type Via Altitude (ft/m) Position (lat/lon) Dist (leg/tot) Name
O SVMI APT - 0 / 0 10.60312 / -66.99059 - / 0 nm Caracas Simon Bolivar Intl
KERON FIX - 10,000 / 3,048 10.25981 / -68.59847 97 / 97 nm
O SVBM APT - 0 / 0 10.04235 / -69.35886 46 / 143 nm BARQUISIMETO INTL

Altitude Profile

Advertisement - Login to hide

SVMI

Details ICAO SVMI (CCS)
Name Maiquetia Simon Bolivar Intl
Region Venezuela
Timezone America/Caracas (UTC-4.0)
Stats Elevation 234 ft / 71 m (AMSL)
Location 10.603200° -66.990400°
Runways 2
Magnetic Variation 12.597° W

METAR

SVMI 060500Z 09005KT 9999 BKN016 28/23 Q1013

Decode

TAF

TAF SVMI 060400Z 0606/0706 09002KT 9999 SCT016 TX31/0617Z TN23/0607Z PORB30 TEMPO 0606/0610 09003KT 9000 -DZ BKN016

Decode

Departure Runways

ID Width Length Bearing (true/mag) Surface Threshold Overrun Markings Lighting
09 151 ft / 46 m 9,523 ft / 2,903 m 75.94° / 88.54° ASPHALT 0 ft / 0 m 0 ft / 0 m VISUAL EDGE THRESHOLD REIL-OMNI
10 151 ft / 46 m 11,494 ft / 3,503 m 88.13° / 100.72° ASPHALT 0 ft / 0 m 187 ft / 57 m PREC-APP CENTERLINE EDGE THRESHOLD MALSR REIL-OMNI
27 151 ft / 46 m 9,523 ft / 2,903 m 255.95° / 268.55° ASPHALT 0 ft / 0 m 0 ft / 0 m VISUAL EDGE THRESHOLD REIL-OMNI
28 151 ft / 46 m 11,494 ft / 3,503 m 268.13° / 280.73° ASPHALT 0 ft / 0 m 187 ft / 57 m PREC-APP CENTERLINE EDGE THRESHOLD REIL-OMNI

SVBM

Details ICAO SVBM (BRM)
Name Jacinto Lara Intl
Region Venezuela
Timezone America/Caracas (UTC-4.0)
Stats Elevation 2,043 ft / 623 m (AMSL)
Location 10.042600° -69.358500°
Runways 1
Magnetic Variation 11.278° W

METAR

SVBM 060502Z AUTO 07006KT NCD 23/21 Q1017

Decode

TAF

Not found

Destination Runways

ID Width Length Bearing (true/mag) Surface Threshold Overrun Markings Lighting
09 148 ft / 45 m 9,329 ft / 2,844 m 81.08° / 92.36° ASPHALT 0 ft / 0 m 0 ft / 0 m PREC-APP EDGE THRESHOLD SALS REIL-OMNI
27 148 ft / 45 m 9,329 ft / 2,844 m 261.09° / 272.37° ASPHALT 1,526 ft / 465 m 0 ft / 0 m PREC-APP EDGE THRESHOLD REIL-OMNI

Popular Alternatives